This is the latest recevied weather packets stored in our database for station/object N6RDS. If no packets are shown the sender has not sent any weather packets the latest 10 day(s).
| Time | Temp. | Humidity | Pressure | Rain* | Wind** | Luminosity | Snow |
|---|---|---|---|---|---|---|---|
| 1777853143 | 19.44° C | 29% | 1022.2 hPa | 0 mm | - | 154 W/m² | - |
| 1777852840 | 19.44° C | 28% | 1022.1 hPa | 0 mm | - | 214 W/m² | - |
| 1777852539 | 20° C | 29% | 1022 hPa | 0 mm | - | 55 W/m² | - |
| 1777852235 | 20° C | 28% | 1022.3 hPa | 0 mm | - | 63 W/m² | - |
| 1777851933 | 20° C | 28% | 1022.1 hPa | 0 mm | - | 246 W/m² | - |
| 1777851631 | 20° C | 28% | 1022.2 hPa | 0 mm | - | 147 W/m² | - |
| 1777851327 | 20.56° C | 27% | 1022.3 hPa | 0 mm | - | 134 W/m² | - |
| 1777851023 | 21.11° C | 28% | 1022.2 hPa | 0 mm | - | 60 W/m² | - |
| 1777850720 | 20.56° C | 28% | 1022.3 hPa | 0 mm | - | 122 W/m² | - |
| 1777850418 | 20.56° C | 29% | 1022.4 hPa | 0 mm | - | 261 W/m² | - |
| 1777850116 | 21.11° C | 26% | 1022.3 hPa | 0 mm | - | 421 W/m² | - |
| 1777849812 | 20.56° C | 26% | 1022.2 hPa | 0 mm | - | 316 W/m² | - |
| 1777849509 | 20.56° C | 27% | 1022.6 hPa | 0 mm | - | 319 W/m² | - |
| 1777849206 | 20.56° C | 27% | 1022.7 hPa | 0 mm | - | 154 W/m² | - |
| 1777848902 | 21.67° C | 26% | 1022.4 hPa | 0 mm | - | 365 W/m² | - |
| 1777848593 | 20.56° C | 29% | 1022.6 hPa | 0 mm | - | 222 W/m² | - |
| 1777848290 | 20.56° C | 28% | 1022.8 hPa | 0 mm | - | 447 W/m² | - |
| 1777847988 | 20.56° C | 28% | 1022.8 hPa | 0 mm | - | 71 W/m² | - |
| 1777847686 | 20.56° C | 28% | 1022.7 hPa | 0 mm | - | 146 W/m² | - |
| 1777847381 | 20° C | 27% | 1023.3 hPa | 0 mm | - | 78 W/m² | - |
| 1777847080 | 20° C | 29% | 1022.9 hPa | 0 mm | - | 168 W/m² | - |
| 1777846777 | 20.56° C | 30% | 1023.1 hPa | 0 mm | - | 160 W/m² | - |
| 1777846475 | 21.67° C | 28% | 1022.9 hPa | 0 mm | - | 448 W/m² | - |
| 1777846172 | 21.11° C | 26% | 1023.1 hPa | 0 mm | - | 456 W/m² | - |
| 1777845868 | 21.11° C | 28% | 1023.2 hPa | 0 mm | - | 426 W/m² | - |
* Rain latest hour (hover to see other rain measurements)
** Current wind speed in m/s (hover to see current wind gust speed)